Location: Chuathbaluk
(61.5726°N, 159.2454°W)
Time: 14:02:19
(UTC+00:00)

XW-2F - Pass Details

Date: 21 January 2021
Orbit: 500 x 520 km, 97.5° (Epoch: 01 March)

Event Time Altitude Azimuth Distance (km) Brightness Sun altitude
Rises 17:21:57 0° 16° (NNE) 2,661 ? -13.4°
Reaches altitude 10° 17:24:04 10° 15° (NNE) 1,771 ? -13.2°
Maximum altitude 17:27:53 81° 289° (WNW) 537 ? -12.7°
Drops below altitude 10° 17:31:42 10° 202° (SSW) 1,761 ? -12.3°
Sets 17:33:47 0° 202° (SSW) 2,645 ? -12.1°
